Regional Weather Roundup
Issued by NWS Burlington, VT

Current Version | Previous Version | Graphics & Text | Print | Product List | Glossary Off
Versions: 1 2 3 4 5 6 7 8 9 10 11 12 13 14 15 16 17 18 19 20 21 22 23 24 25 26 27 28 29 30 31 32 33 34 35 36 37 38 39 40 41 42 43 44 45 46 47 48 49 50

000
ASUS41 KBTV 120210
RWRBTV
VERMONT REGIONAL WEATHER ROUNDUP
NATIONAL WEATHER SERVICE BURLINGTON VT
1000 PM EDT FRI JUL 11 2014

NOTE: "FAIR" INDICATES FEW OR NO CLOUDS BELOW 12,000 FEET WITH NO
SIGNIFICANT WEATHER AND/OR OBSTRUCTIONS TO VISIBILITY.

* THESE REPORTS ARE NOT UNDER NWS QUALITY CONTROL AND/OR DO NOT
  REPORT WEATHER SUCH AS PRECIPITATION AND FOG.

VTZ001>019-120300-
_____VERMONT_____


CITY           SKY/WX    TMP DP  RH WIND       PRES   REMARKS
BURLINGTON     CLEAR     65  56  72 E3        30.20R
MORRISVILLE    CLEAR     59  53  80 CALM      30.24R
ST. JOHNSBURY*   N/A     62  56  80 MISG      30.20R
LYNDONVILLE*   FAIR      62  51  68 CALM      30.25R
MIDDLEBURY*    FAIR      63  55  77 CALM      30.21R
RUTLAND*       CLEAR     63  54  72 SE9       30.23R
SPRINGFIELD    CLEAR     62  58  86 CALM      30.23R
HIGHGATE*      FAIR      60  57  89 CALM      30.20R
NEWPORT*       FAIR     N/A N/A N/A SW6       30.23R
BENNINGTON     CLEAR     61  55  81 CALM      30.23R
SUTTON*          N/A     59 N/A N/A MISG        N/A

_____LAKE CHAMPLAIN_____


CITY           SKY/WX    TMP DP  RH WIND       PRES   REMARKS
COLCHESTER RF*   N/A     72  63  73 NW5         N/A
DIAMOND ISL*     N/A     68  55  64 W1          N/A

$$

NYZ007-026>031-035-052-083-120300-
_____NORTHERN NEW YORK_____


CITY           SKY/WX    TMP DP  RH WIND       PRES   REMARKS
PLATTSBURGH    CLEAR     62  57  83 CALM      30.19R
SARANAC LAKE   CLEAR     54  52  93 CALM      30.23R
MASSENA        CLEAR     60  57  89 CALM      30.19R
OGDENSBURG*    CLEAR     57  55  94 S3        30.20R
POTSDAM*       CLEAR     57  57 100 CALM      30.20R
WATERTOWN      CLEAR     56  50  80 CALM      30.20R
FT DRUM        CLEAR     59  52  77 S3        30.21S
ALBANY         CLEAR     67  56  67 CALM      30.21R
GLENS FALLS    CLEAR     63  58  83 CALM      30.20R

$$
NHZ002-005-011-120300-
_____NEW HAMPSHIRE_____


CITY           SKY/WX    TMP DP  RH WIND       PRES   REMARKS
LEBANON        CLEAR     61  56  83 CALM      30.21R
KEENE          CLEAR     63  52  67 CALM      30.22R
MT WASHINGTON  PTCLDY    46  41  81 W8          N/A
PLYMOUTH       FAIR      60  58  92 CALM      30.22R
WHITEFIELD     CLEAR     59  54  83 CALM      30.23R

$$

_____REGIONAL QUEBEC LOCATIONS_____


CITY           SKY/WX    TMP DP  RH WIND       PRES   REMARKS
MONTREAL       PTCLDY    70  54  56 SW6       30.18R
QUEBEC CITY    PTCLDY    63  54  72 SW6       30.16R
SHERBROOKE     CLEAR     59  54  82 CALM      30.21R

_____REGIONAL ONTARIO LOCATIONS_____


CITY           SKY/WX    TMP DP  RH WIND       PRES   REMARKS
OTTAWA         PTCLDY    66  57  72 S6        30.19R

______KEY______
VSB  - VISIBILITY IN MILES
WCI  - WIND CHILL INDEX
HX   - HEAT INDEX
$$
NNNN


USA.gov is the U.S. government's official web portal to all federal, state and local government web resources and services.